[[{"header":{"parameterUnit":"m.s-1","parameterCategory":1,"la1":30.2991,"la2":30.254,"lo1":-89.0895,"lo2":-89.0444,"dy":0.0017,"dx":0.0017,"nx":28,"ny":28,"refTime":"2024-04-13T09:00:00:Z","depth":0,"parameterNumber":2,"parameterNumberName":"U-component_of_WINDS"},"data":[0,0,0,0,0,0,0,0,0,0,0,0,0,0,0,0,0,0,0,0,0,0,0,0,0,0,0,0,0,0,0,0,0,0,0,0,0,0,0,0,0,0,0,0,0,0,0,0,0,0,0,0,0,0,0,0,0,0,-0.6679,-0.6677,0,-0.6549,-0.6547,-0.6546,-0.6514,-0.6515,-0.6516,-0.6517,-0.6382,-0.6378,-0.6374,0,0,0,0,0,0,0,0,0,0,0,0,0,-0.6897,-0.6893,-0.6679,-0.6677,-0.6675,-0.6549,-0.6547,-0.6545,-0.6514,-0.6515,-0.6516,-0.6517,-0.6384,-0.6379,-0.6373,0,0,0,0,0,0,0,0,0,0,0,0,0,-0.6788,-0.6892,-0.6679,-0.6645,-0.664,-0.6549,-0.6547,-0.6545,-0.6514,-0.6515,-0.6516,-0.6517,-0.6385,-0.6379,-0.6373,-0.6307,0,0,-0.6353,-0.635,0,0,0,0,0,0,0,0,-0.6794,-0.678,-0.6651,-0.6647,-0.6642,-0.6549,-0.6575,-0.6465,-0.6513,-0.6562,-0.6517,-0.6518,-0.6437,-0.6426,-0.6399,-0.63,-0.6295,-0.6352,-0.6348,-0.6345,-0.6343,0,0,0,0,0,0,0,-0.6802,-0.6786,-0.6627,-0.6649,-0.6643,-0.6635,-0.6621,-0.6554,-0.6493,-0.6558,-0.6555,-0.654,-0.6434,-0.6405,-0.6395,-0.6293,-0.6352,-0.6346,-0.6342,-0.634,-0.6131,-0.6129,0,0,0,0,0,0,-0.6816,-0.6792,-0.6631,-0.6623,-0.6723,-0.663,-0.6614,-0.6577,-0.6494,-0.6483,-0.6539,-0.6539,-0.6416,-0.6403,-0.639,-0.6306,-0.6345,-0.6339,-0.6335,-0.6132,-0.613,-0.6129,0,0,0,0,0,0,-0.6821,-0.6802,-0.6637,-0.6707,-0.6685,-0.6625,-0.6584,-0.6574,-0.6545,-0.648,-0.6469,-0.6521,-0.6416,-0.64,-0.6327,-0.6301,-0.6336,-0.633,-0.6134,-0.6132,-0.613,-0.6138,0,0,0,0,0,0,-0.6827,-0.6804,-0.6779,-0.6707,-0.6682,-0.6576,-0.6582,-0.6571,-0.6534,-0.6533,-0.646,-0.6449,-0.6416,-0.6337,-0.6321,-0.6293,-0.6325,-0.6136,-0.6133,-0.613,-0.6139,-0.6136,-0.6133,0,0,0,0,0,-0.6835,-0.6786,-0.6778,-0.6758,-0.6649,-0.6575,-0.6561,-0.6524,-0.6532,-0.6506,-0.6464,-0.6451,-0.6307,-0.633,-0.6311,-0.6281,-0.6138,-0.6134,-0.6131,-0.6141,-0.6137,-0.6133,0,0,0,0,0,0,-0.6857,-0.6776,-0.6766,-0.6693,-0.6641,-0.657,-0.6536,-0.6521,-0.6465,-0.6466,-0.6423,-0.6406,-0.6336,-0.6301,-0.6329,-0.6211,-0.6222,-0.6215,-0.6237,-0.6232,-0.6228,-0.6238,-0.632,0,0,0,0,0,-0.6854,-0.6801,-0.6733,-0.6675,-0.6649,-0.6597,-0.6563,-0.6539,-0.6484,-0.6462,-0.6414,-0.636,-0.6302,-0.6265,-0.6209,-0.6134,-0.6117,-0.6104,-0.6101,-0.6098,-0.6092,-0.6048,-0.6041,-0.6117,-0.6117,-0.6117,0,0,-0.6846,-0.6795,-0.6764,-0.6678,-0.6635,-0.658,-0.6579,-0.6521,-0.6479,-0.6453,-0.6381,-0.6344,-0.6281,-0.6207,-0.6172,-0.6176,-0.6067,-0.6094,-0.6092,-0.6087,-0.6043,-0.6036,-0.603,-0.6114,-0.6115,-0.6115,0,0,-0.6803,-0.676,-0.6706,-0.6662,-0.6597,-0.6562,-0.6549,-0.648,-0.6454,-0.6382,-0.636,-0.631,-0.6211,-0.6167,-0.6131,-0.6069,-0.6055,-0.6052,-0.6034,-0.5991,-0.5985,-0.598,-0.5956,-0.5948,-0.6046,-0.6046,-0.6046,0,-0.6801,-0.6718,-0.668,-0.6622,-0.6584,-0.6557,-0.6501,-0.6461,-0.6381,-0.6354,-0.636,-0.6235,-0.619,-0.6104,-0.6089,-0.6062,-0.6044,-0.606,-0.5989,-0.5983,-0.5978,-0.5954,-0.5946,-0.6046,-0.6046,-0.6046,-0.6046,0,-0.6718,-0.666,-0.6624,-0.6547,-0.6505,-0.6449,-0.6401,-0.6363,-0.6342,-0.6306,-0.6232,-0.6177,-0.6108,-0.6086,-0.6066,-0.5996,-0.6,-0.5998,-0.6008,-0.5971,-0.5948,-0.5939,-0.6046,-0.6046,-0.6046,-0.6046,0,0,-0.6686,-0.6587,-0.6574,-0.6538,-0.6463,-0.6417,-0.6359,-0.6292,-0.6259,-0.6204,-0.6153,-0.607,-0.6066,-0.6026,-0.6,-0.5963,-0.5915,-0.5965,-0.5963,-0.5956,-0.5833,-0.5834,-0.5825,-0.5906,-0.5904,-0.5902,-0.5838,0,-0.6633,-0.6528,-0.6491,-0.6404,-0.635,-0.6322,-0.6271,-0.6219,-0.6184,-0.6132,-0.6093,-0.6034,-0.6035,-0.601,-0.5972,-0.5929,-0.5889,-0.5933,-0.5856,-0.5854,-0.5872,-0.5813,-0.5814,-0.5756,-0.5829,-0.5827,-0.5826,0,-0.6557,-0.65,-0.6408,-0.6338,-0.6313,-0.6268,-0.6202,-0.6153,-0.6093,-0.607,-0.6024,-0.6,-0.5937,-0.5951,-0.5862,-0.5893,-0.5859,-0.5833,-0.5829,-0.582,-0.5837,-0.58,-0.5737,-0.5728,-0.5812,-0.5813,-0.5814,0,-0.6541,-0.6441,-0.6373,-0.6343,-0.626,-0.6228,-0.6192,-0.6133,-0.6094,-0.6036,-0.601,-0.5946,-0.591,-0.5861,-0.5819,-0.5834,-0.5733,-0.5745,-0.5711,-0.5712,-0.569,-0.5692,-0.5619,-0.5671,-0.5671,-0.5671,-0.5672,0,-0.6484,-0.6429,-0.6364,-0.6322,-0.6258,-0.6215,-0.6153,-0.6115,-0.6063,-0.6011,-0.5984,-0.5937,-0.5886,-0.5831,-0.5799,-0.5729,-0.5713,-0.5692,-0.5684,-0.5693,-0.5696,-0.567,-0.5672,-0.5669,-0.5669,-0.567,-0.567,0,-0.6456,-0.6411,-0.6333,-0.6261,-0.6241,-0.6197,-0.6134,-0.6091,-0.6055,-0.599,-0.5972,-0.5914,-0.5849,-0.5803,-0.5718,-0.5696,-0.562,-0.5613,-0.5641,-0.5636,-0.5604,-0.5607,-0.5511,-0.5495,-0.5559,-0.5559,-0.5558,0,-0.6423,-0.6379,-0.6301,-0.6264,-0.6228,-0.617,-0.613,-0.6086,-0.6045,-0.5972,-0.5938,-0.587,-0.5813,-0.5709,-0.5659,-0.5594,-0.5584,-0.5554,-0.5574,-0.5584,-0.5581,-0.5584,-0.5578,-0.5551,-0.5551,-0.555,-0.555,0,-0.6368,-0.6347,-0.629,-0.6224,-0.6177,-0.6123,-0.6069,-0.6041,-0.5987,-0.5942,-0.5874,-0.583,-0.5743,-0.5676,-0.5605,-0.5567,-0.5549,-0.5544,-0.5533,-0.5542,-0.5559,-0.5547,-0.5631,-0.5547,-0.5547,-0.5547,-0.5547,-0.5548,-0.6334,-0.6293,-0.6231,-0.6168,-0.6123,-0.6072,-0.6028,-0.5985,-0.5927,-0.5853,-0.5831,-0.576,-0.5698,-0.5602,-0.5562,-0.5505,-0.5507,-0.5491,-0.5487,-0.5483,-0.5482,-0.5569,-0.5493,-0.5493,-0.5493,-0.5493,-0.5493,0,-0.6276,-0.6235,-0.6177,-0.6102,-0.6051,-0.6039,-0.5978,-0.5936,-0.5874,-0.5819,-0.5763,-0.5684,-0.5618,-0.5562,-0.5493,-0.5458,-0.5448,-0.5441,-0.5443,-0.5434,-0.5485,-0.5501,-0.5451,-0.5451,-0.5451,-0.5451,-0.5451,-0.5451,-0.624,-0.6169,-0.6141,-0.6046,-0.6005,-0.5935,-0.5901,-0.5854,-0.5809,-0.5722,-0.5667,-0.563,-0.5574,-0.55,-0.5439,-0.5424,-0.5399,-0.5394,-0.5377,-0.5426,-0.5431,-0.5435,-0.545,-0.5389,-0.5389,-0.533,-0.5329,-0.5329]},{"header":{"parameterUnit":"m.s-1","parameterCategory":1,"la1":30.2991,"la2":30.254,"lo1":-89.0895,"lo2":-89.0444,"dy":0.0017,"dx":0.0017,"nx":28,"ny":28,"refTime":"2024-04-13T09:00:00:Z","depth":0,"parameterNumber":3,"parameterNumberName":"V-component_of_WINDS"},"data":[0,0,0,0,0,0,0,0,0,0,0,0,0,0,0,0,0,0,0,0,0,0,0,0,0,0,0,0,0,0,0,0,0,0,0,0,0,0,0,0,0,0,0,0,0,0,0,0,0,0,0,0,0,0,0,0,0,0,4.1351,4.1351,0,4.1388,4.1389,4.1389,4.1304,4.1301,4.1299,4.1296,4.1333,4.1337,4.134,0,0,0,0,0,0,0,0,0,0,0,0,0,4.1203,4.1206,4.1351,4.1351,4.1352,4.1388,4.1389,4.1389,4.1305,4.1301,4.1298,4.1295,4.1332,4.1336,4.1341,0,0,0,0,0,0,0,0,0,0,0,0,0,4.1256,4.1207,4.1351,4.1314,4.1311,4.1388,4.1389,4.1389,4.1305,4.1301,4.1297,4.1293,4.1331,4.1336,4.1341,4.1456,0,0,4.1357,4.136,0,0,0,0,0,0,0,0,4.1253,4.1262,4.1319,4.1317,4.1313,4.1337,4.135,4.1412,4.1306,4.1308,4.1296,4.1291,4.1338,4.1342,4.1358,4.1457,4.1459,4.1358,4.1361,4.1363,4.1365,0,0,0,0,0,0,0,4.125,4.126,4.1365,4.132,4.1316,4.1295,4.1298,4.1361,4.1345,4.1307,4.1301,4.1307,4.1336,4.1354,4.1359,4.1459,4.1358,4.1362,4.1366,4.1368,4.1652,4.1656,0,0,0,0,0,0,4.1251,4.1257,4.1364,4.1367,4.1273,4.1301,4.1304,4.1334,4.1344,4.1342,4.131,4.1303,4.1347,4.1353,4.136,4.1493,4.1363,4.1368,4.1371,4.1648,4.1653,4.1658,0,0,0,0,0,0,4.1248,4.1262,4.1363,4.131,4.1322,4.1307,4.1342,4.1337,4.1354,4.1347,4.1343,4.1332,4.1344,4.1352,4.1432,4.1493,4.1371,4.1375,4.1642,4.1649,4.1655,4.1762,0,0,0,0,0,0,4.1244,4.1261,4.1305,4.1312,4.1325,4.1436,4.1345,4.134,4.1364,4.1354,4.1366,4.1364,4.1341,4.1425,4.1437,4.1498,4.138,4.1637,4.1645,4.1653,4.1753,4.1771,4.1787,0,0,0,0,0,4.1239,4.1334,4.1308,4.1321,4.138,4.1439,4.1447,4.1419,4.1369,4.1413,4.1407,4.1363,4.1484,4.1433,4.1447,4.1511,4.1633,4.1643,4.1653,4.1745,4.1768,4.1787,0,0,0,0,0,0,4.1334,4.1334,4.1305,4.1405,4.1423,4.1425,4.1479,4.1444,4.1476,4.1466,4.143,4.1433,4.152,4.1523,4.1466,4.1621,4.155,4.1563,4.1616,4.1637,4.1654,4.1651,4.1384,0,0,0,0,0,4.1367,4.1416,4.1413,4.1501,4.1511,4.1494,4.1519,4.1496,4.1513,4.152,4.1521,4.1539,4.158,4.1609,4.1647,4.1752,4.1753,4.1803,4.182,4.1834,4.1846,4.19,4.1922,4.169,4.169,4.169,0,0,4.1434,4.144,4.1473,4.152,4.1531,4.1582,4.1501,4.1559,4.1596,4.1529,4.1604,4.1605,4.1622,4.1715,4.1756,4.1721,4.191,4.1846,4.1858,4.1862,4.1913,4.1935,4.1954,4.1697,4.1695,4.1694,0,0,4.1583,4.1593,4.1667,4.168,4.1698,4.1685,4.1703,4.1711,4.1709,4.1784,4.1734,4.1777,4.1851,4.1865,4.1881,4.2034,4.1994,4.2048,4.2137,4.2191,4.2209,4.2225,4.2279,4.2299,4.2059,4.206,4.206,0,4.1665,4.174,4.1709,4.177,4.1791,4.1733,4.1807,4.182,4.185,4.1866,4.1825,4.1915,4.1923,4.2018,4.2055,4.2071,4.2089,4.2046,4.2209,4.2225,4.2239,4.229,4.2311,4.2066,4.2065,4.2064,4.2064,0,4.1839,4.1892,4.1949,4.198,4.2007,4.2074,4.2052,4.2084,4.2058,4.205,4.2126,4.2133,4.2171,4.2192,4.2167,4.2283,4.226,4.2215,4.2143,4.2268,4.2316,4.2335,4.2075,4.2073,4.2071,4.2069,0,0,4.205,4.2061,4.2083,4.2095,4.211,4.215,4.2214,4.2251,4.2278,4.23,4.2352,4.2415,4.2373,4.2392,4.2368,4.2416,4.2535,4.2365,4.2364,4.2396,4.2662,4.2696,4.2719,4.2509,4.2512,4.2515,4.266,0,4.2197,4.2307,4.228,4.2389,4.2437,4.2381,4.2437,4.2451,4.2445,4.2484,4.2476,4.2521,4.2462,4.2473,4.2518,4.2512,4.2588,4.2501,4.2556,4.2559,4.2554,4.2744,4.278,4.2917,4.2679,4.2682,4.2684,0,4.2384,4.2413,4.2527,4.2533,4.2552,4.2602,4.2633,4.2671,4.2686,4.2678,4.2699,4.2665,4.2727,4.2655,4.2739,4.268,4.27,4.2701,4.2705,4.2709,4.2629,4.2753,4.296,4.298,4.2713,4.2711,4.2709,0,4.2525,4.2593,4.2669,4.2682,4.2691,4.2727,4.2733,4.2743,4.2767,4.2794,4.2809,4.2843,4.2862,4.2888,4.2864,4.2814,4.2952,4.2877,4.2946,4.2947,4.2978,4.2976,4.3191,4.2992,4.2991,4.2991,4.2991,0,4.2692,4.2764,4.2733,4.278,4.2858,4.2826,4.2904,4.2902,4.2912,4.2957,4.2911,4.2954,4.292,4.296,4.2942,4.3014,4.3022,4.3017,4.3011,4.3021,4.3022,4.3034,4.3024,4.2996,4.2995,4.2994,4.2993,0,4.2864,4.2846,4.2926,4.2928,4.293,4.2987,4.2988,4.3031,4.3021,4.3078,4.309,4.3073,4.3118,4.3097,4.3143,4.313,4.3223,4.3205,4.3218,4.3214,4.3283,4.3277,4.3513,4.3543,4.3325,4.3327,4.3329,0,4.2972,4.3026,4.3033,4.306,4.3069,4.3113,4.3137,4.3106,4.3133,4.3153,4.3194,4.3234,4.3265,4.3338,4.333,4.3365,4.3347,4.3427,4.3351,4.336,4.3347,4.3345,4.3349,4.3442,4.3445,4.3447,4.3449,0,4.3165,4.3153,4.319,4.3223,4.3253,4.3278,4.3298,4.3323,4.3293,4.3325,4.337,4.3393,4.344,4.3481,4.3511,4.3515,4.3477,4.3472,4.349,4.3501,4.3507,4.3504,4.326,4.3467,4.3465,4.3464,4.3463,4.3462,4.3308,4.3353,4.3365,4.3407,4.3419,4.3439,4.3479,4.3473,4.351,4.3547,4.3526,4.3578,4.359,4.3627,4.3636,4.3676,4.3644,4.367,4.3676,4.3683,4.3692,4.35,4.3681,4.3681,4.368,4.368,4.3679,0,4.3498,4.3503,4.3542,4.3572,4.3605,4.3566,4.3586,4.3616,4.3663,4.3677,4.3708,4.3759,4.3798,4.3792,4.3827,4.386,4.3843,4.387,4.3867,4.3869,4.3719,4.37,4.3883,4.3883,4.3883,4.3883,4.3883,4.3883,4.3601,4.3675,4.3664,4.3743,4.3746,4.3798,4.3813,4.383,4.3842,4.3901,4.3933,4.3929,4.3935,4.397,4.4003,4.4,4.4015,4.4049,4.404,4.39,4.388,4.386,4.3842,4.4052,4.4053,4.4186,4.4188,4.4189]}]]